Satellite-Ground Cal/Val Region Overpasses Predictions

Prediction of Satellite NPP Overpassing Cal/Val Region: PacNW

Region Location: (Latitude: 10.00, Longitude: 139.50) to (Latitude: 22.70, Longitude: 165.60).

Table of predicted overpasses for the next 14.0 days since TLE Epoch: 9/4/2020
Interval Starting Time Starting Location Ending Time Ending Location
1 09/05/2020 02:39:26 ( 10.05, 159.89) 09/05/2020 02:43:01 ( 22.67, 156.89)
2 09/05/2020 15:11:19 ( 22.67, 157.14) 09/05/2020 15:14:54 ( 10.05, 154.13)
3 09/06/2020 02:20:25 ( 10.05, 164.65) 09/06/2020 02:24:00 ( 22.68, 161.64)
4 09/06/2020 14:52:18 ( 22.67, 161.89) 09/06/2020 14:55:53 ( 10.05, 158.89)
5 09/07/2020 03:42:52 ( 10.00, 144.04) 09/07/2020 03:46:28 ( 22.68, 141.02)
6 09/07/2020 14:34:29 ( 18.39, 165.60) 09/07/2020 14:36:51 ( 10.05, 163.64)
7 09/07/2020 16:14:46 ( 22.66, 141.27) 09/07/2020 16:16:50 ( 15.39, 139.51)
8 09/08/2020 03:23:51 ( 10.00, 148.80) 09/08/2020 03:27:27 ( 22.69, 145.78)
9 09/08/2020 15:55:45 ( 22.66, 146.03) 09/08/2020 15:59:20 ( 10.04, 143.03)
10 09/09/2020 03:04:49 ( 10.01, 153.55) 09/09/2020 03:08:25 ( 22.69, 150.54)
11 09/09/2020 15:36:43 ( 22.66, 150.79) 09/09/2020 15:40:18 ( 10.04, 147.78)
12 09/10/2020 02:45:48 ( 10.01, 158.31) 09/10/2020 02:49:24 ( 22.69, 155.29)
13 09/10/2020 15:17:42 ( 22.65, 155.54) 09/10/2020 15:21:17 ( 10.03, 152.54)
14 09/11/2020 02:26:47 ( 10.02, 163.07) 09/11/2020 02:30:23 ( 22.70, 160.05)
15 09/11/2020 14:58:40 ( 22.65, 160.30) 09/11/2020 15:02:15 ( 10.03, 157.30)
16 09/12/2020 02:10:27 ( 19.54, 165.59) 09/12/2020 02:11:20 ( 22.65, 164.82)
17 09/12/2020 03:49:15 ( 10.03, 142.45) 09/12/2020 03:52:46 ( 22.42, 139.50)
18 09/12/2020 14:39:39 ( 22.65, 165.06) 09/12/2020 14:43:14 ( 10.03, 162.05)
19 09/12/2020 16:21:08 ( 22.70, 139.70) 09/12/2020 16:21:21 ( 21.94, 139.50)
20 09/13/2020 03:30:14 ( 10.03, 147.20) 09/13/2020 03:33:49 ( 22.66, 144.20)
21 09/13/2020 16:02:06 ( 22.70, 144.45) 09/13/2020 16:05:42 ( 10.02, 141.43)
22 09/14/2020 03:11:12 ( 10.04, 151.96) 09/14/2020 03:14:47 ( 22.66, 148.96)
23 09/14/2020 15:43:05 ( 22.69, 149.21) 09/14/2020 15:46:41 ( 10.01, 146.19)
24 09/15/2020 02:52:11 ( 10.04, 156.72) 09/15/2020 02:55:46 ( 22.67, 153.71)
25 09/15/2020 15:24:03 ( 22.69, 153.96) 09/15/2020 15:27:39 ( 10.01, 150.95)
26 09/16/2020 02:33:09 ( 10.05, 161.47) 09/16/2020 02:36:44 ( 22.67, 158.47)
27 09/16/2020 15:05:02 ( 22.68, 158.72) 09/16/2020 15:08:38 ( 10.00, 155.70)
28 09/17/2020 02:14:55 ( 12.82, 165.59) 09/17/2020 02:17:43 ( 22.68, 163.22)
29 09/17/2020 03:55:37 ( 10.00, 140.87) 09/17/2020 03:57:17 ( 15.88, 139.50)
30 09/17/2020 14:46:00 ( 22.68, 163.48) 09/17/2020 14:49:35 ( 10.06, 160.47)
31 09/18/2020 03:36:35 ( 10.01, 145.62) 09/18/2020 03:40:11 ( 22.69, 142.60)
32 09/18/2020 14:30:07 ( 11.64, 165.59) 09/18/2020 14:30:34 ( 10.05, 165.23)
